Stations météo

réclame
Mon MeteoGroup
Krångede, Suède (2247): Température de l'air & dewpoint: 19.05.2018 12:00:00 - 25.05.2018 12:00:00 (CEST)Krångede, Suède (2247): Vitesse du vent & gusts: 19.05.2018 12:00:00 - 25.05.2018 12:00:00 (CEST)Krångede, Suède (2247): Direction du vent: 19.05.2018 12:00:00 - 25.05.2018 12:00:00 (CEST)Krångede, Suède (2247): reduced air pressure: 19.05.2018 12:00:00 - 25.05.2018 12:00:00 (CEST)Krångede, Suède (2247): visibility: 19.05.2018 12:00:00 - 25.05.2018 12:00:00 (CEST)Krångede, Suède (2247): Quantités de précipitations: 19.05.2018 12:00:00 - 25.05.2018 12:00:00 (CEST)
Date & Time tt [°C] td [°C] ff [km/h] ff [knt] fx [km/h] fx [knt] dd ppp [hPa] vv [km] rr [mm]
25.05.2018 12:00:00 23,3 8,2 6 3 10 5 S 1025,1 36 0,0
25.05.2018 11:00:00 21,6 8,1 4 2 9 5 SSW 1025,4 36 0,0
25.05.2018 10:00:00 19,2 7,9 3 2 8 4 SSE 1025,8 41 0,0
25.05.2018 09:00:00 16,7 8,1 2 1 8 4 S 1026,2 29 0,0
25.05.2018 08:00:00 13,6 7,1 0 0 5 3 N 1026,6 40 0,0
25.05.2018 07:00:00 10,7 6,4 0 0 3 2 N 1026,8 45 0,0
25.05.2018 06:00:00 7,7 5,3 0 0 3 1 N 1026,9 39 0,0
25.05.2018 05:00:00 4,8 4,1 0 0 2 1 N 1027,0 48 0,0
25.05.2018 04:00:00 4,7 3,8 0 0 1 1 N 1027,0 50 0,0
25.05.2018 03:00:00 5,7 4,0 0 0 3 2 N 1026,6 50 0,0
25.05.2018 02:00:00 7,1 4,6 0 0 5 3 N 1026,3 50 0,0
25.05.2018 01:00:00 10,3 5,3 2 1 10 6 SE 1025,8 50 0,0
25.05.2018 00:00:00 13,5 5,1 5 3 14 7 E 1025,6 50 0,0
24.05.2018 23:00:00 14,8 5,6 6 3 21 11 E 1025,5 50 0,0
24.05.2018 22:00:00 17,3 6,2 11 6 21 12 E 1024,9 50 0,0
24.05.2018 21:00:00 19,8 6,9 6 3 24 13 ESE 1024,4 40 0,0
24.05.2018 20:00:00 21,7 7,1 16 9 27 14 SSE 1023,8 36 0,0
24.05.2018 19:00:00 23,8 6,6 5 3 16 9 S 1023,6 46 0,0
24.05.2018 18:00:00 24,1 7,3 9 5 20 11 S 1024,0 50 0,0
24.05.2018 17:00:00 23,9 7,1 8 4 21 11 S 1024,3 39 0,0
24.05.2018 16:00:00 23,7 7,7 3 2 20 11 SE 1024,8 46 0,0
24.05.2018 15:00:00 22,7 8,0 11 6 19 10 SSE 1025,4 38 0,0
24.05.2018 14:00:00 21,8 8,0 9 5 26 14 SSE 1026,2 37 0,0
24.05.2018 13:00:00 20,7 7,3 11 6 24 13 SSW 1027,0 31 0,0
24.05.2018 12:00:00 18,7 5,5 13 7 22 12 SE 1027,6 35 0,0
24.05.2018 11:00:00 17,5 5,7 13 7 26 14 S 1028,3 37 0,0
24.05.2018 10:00:00 16,3 5,3 10 5 18 10 SSE 1028,6 36 0,0
24.05.2018 09:00:00 13,7 5,6 7 4 14 8 ENE 1029,4 35 0,0
24.05.2018 08:00:00 9,4 4,6 3 1 6 4 SSE 1030,1 43 0,0
24.05.2018 07:00:00 6,1 3,1 0 0 5 3 N 1030,9 46 0,0
24.05.2018 06:00:00 3,7 2,4 0 0 3 2 N 1031,3 39 0,0
24.05.2018 05:00:00 1,4 0,8 0 0 3 2 N 1031,3 50 0,0
24.05.2018 04:00:00 -0,1 -1,1 0 0 3 2 N 1031,4 50 0,0
24.05.2018 03:00:00 1,1 -0,7 0 0 4 2 N 1031,3 50 0,0
24.05.2018 02:00:00 1,5 -0,3 0 0 3 2 N 1030,9 50 0,0
24.05.2018 01:00:00 2,5 1,0 0 0 4 2 N 1030,6 50 0,0
24.05.2018 00:00:00 4,1 0,8 0 0 5 3 N 1029,8 50 0,0
23.05.2018 23:00:00 6,2 1,1 0 0 3 1 N 1029,2 50 0,0
23.05.2018 22:00:00 8,4 1,3 2 1 7 4 NW 1028,8 50 0,0
23.05.2018 21:00:00 13,9 2,5 4 2 9 5 ENE 1027,3 50 0,0
23.05.2018 20:00:00 17,0 2,9 2 1 10 5 NNW 1026,6 50 0,0
23.05.2018 19:00:00 17,6 -2,1 4 2 15 8 SW 1026,5 47 0,0
23.05.2018 18:00:00 17,6 -3,2 6 4 17 9 WSW 1026,2 49 0,0
23.05.2018 17:00:00 17,5 -1,7 7 4 17 9 SW 1026,3 35 0,0
23.05.2018 16:00:00 17,2 -2,5 8 4 16 9 SSW 1026,3 37 0,0
23.05.2018 15:00:00 17,4 0,1 6 3 18 10 SW 1026,2 45 0,0
23.05.2018 14:00:00 16,6 -1,1 7 4 19 10 NW 1026,5 32 0,0
23.05.2018 13:00:00 16,2 1,5 8 5 17 9 SSW 1026,6 41 0,0
23.05.2018 12:00:00 15,2 -1,4 6 3 17 9 NW 1026,6 33 0,0
23.05.2018 11:00:00 14,0 0,3 5 3 15 8 SE 1026,6 46 0,0
23.05.2018 10:00:00 11,9 0,6 3 2 16 9 N 1027,0 42 0,0
23.05.2018 09:00:00 10,9 0,9 5 3 22 12 NNW 1026,7 44 0,0
23.05.2018 08:00:00 9,0 0,2 7 4 18 10 N 1026,7 47 0,0
23.05.2018 07:00:00 8,0 -0,2 8 5 17 9 N 1026,4 46 0,0
23.05.2018 06:00:00 7,2 1,5 4 2 13 7 NNE 1026,2 45 0,0
23.05.2018 05:00:00 4,6 2,3 4 2 9 5 NW 1025,9 50 0,0
23.05.2018 04:00:00 5,0 2,4 3 1 11 6 NW 1025,2 50 0,0
23.05.2018 03:00:00 6,1 2,9 5 3 13 7 WNW 1024,5 50 0,0
23.05.2018 02:00:00 7,5 3,7 7 4 14 7 NW 1023,9 50 0,0
23.05.2018 01:00:00 9,2 4,4 8 5 21 11 NW 1023,2 50 0,0
23.05.2018 00:00:00 10,1 5,1 11 6 26 14 NW 1022,7 42 0,0
22.05.2018 23:00:00 11,3 5,6 15 8 29 15 NW 1021,9 43 0,0
22.05.2018 22:00:00 13,5 6,1 11 6 22 12 NW 1020,7 41 0,0
22.05.2018 21:00:00 15,2 5,7 13 7 39 21 NNW 1019,3 50 0,0
22.05.2018 20:00:00 18,6 6,1 22 12 36 19 NW 1018,1 40 0,0
22.05.2018 19:00:00 20,7 3,4 21 11 36 19 NW 1017,3 31 0,0
22.05.2018 18:00:00 20,5 5,3 15 8 39 21 NW 1017,0 43 0,0
22.05.2018 17:00:00 22,0 5,4 21 11 35 19 NNW 1016,6 37 0,0
22.05.2018 16:00:00 23,2 5,1 5 3 24 13 NNW 1016,3 40 0,0
22.05.2018 15:00:00 22,7 5,6 11 6 23 12 NNW 1016,7 32 0,0
22.05.2018 14:00:00 22,6 7,9 7 4 18 10 WNW 1017,1 38 0,0
22.05.2018 13:00:00 21,6 7,1 9 5 19 10 WNW 1017,3 34 0,0
22.05.2018 12:00:00 18,6 8,8 6 3 17 9 WSW 1018,0 34 0,0
22.05.2018 11:00:00 19,1 9,0 6 3 18 10 SW 1018,1 35 0,0
22.05.2018 10:00:00 19,1 10,4 4 2 9 5 SW 1018,0 43 0,0
22.05.2018 09:00:00 17,4 9,6 3 2 7 4 S 1018,3 37 0,0
22.05.2018 08:00:00 14,4 8,6 2 1 6 3 SSE 1019,0 32 0,0
22.05.2018 07:00:00 11,7 8,0 0 0 4 2 N 1019,4 35 0,0
22.05.2018 06:00:00 8,3 7,1 0 0 3 2 N 1020,0 31 0,0
22.05.2018 05:00:00 7,2 6,3 0 0 4 2 N 1020,1 34 0,0
22.05.2018 04:00:00 7,4 6,0 3 1 5 3 NNE 1020,3 35 0,0
22.05.2018 03:00:00 6,1 4,9 0 0 4 2 N 1020,3 43 0,0
22.05.2018 02:00:00 7,3 5,1 0 0 3 1 N 1020,4 50 0,0
22.05.2018 01:00:00 7,4 5,0 3 2 6 3 N 1020,7 50 0,0
22.05.2018 00:00:00 9,2 6,1 0 0 9 5 N 1020,7 50 0,0
21.05.2018 23:00:00 11,0 6,9 0 0 3 2 N 1020,5 50 0,0
21.05.2018 22:00:00 12,8 6,8 0 0 3 2 N 1020,5 50 0,0
21.05.2018 21:00:00 14,7 7,0 0 0 4 2 N 1020,1 50 0,0
21.05.2018 20:00:00 20,2 10,0 2 1 10 5 NNW 1019,6 46 0,0
21.05.2018 19:00:00 24,9 2,3 4 2 17 9 W 1019,4 41 0,0
21.05.2018 18:00:00 24,4 4,2 6 3 17 9 S 1019,5 48 0,0
21.05.2018 17:00:00 24,2 5,0 3 2 11 6 E 1019,8 50 0,0
21.05.2018 16:00:00 24,1 3,9 7 4 11 6 SSE 1020,1 39 0,0
21.05.2018 15:00:00 23,9 3,2 5 3 14 8 E 1020,3 35 0,0
21.05.2018 14:00:00 24,0 4,4 8 4 14 8 SSE 1020,4 37 0,0
21.05.2018 13:00:00 23,8 2,6 4 2 16 9 SW 1020,6 34 0,0
21.05.2018 12:00:00 23,5 4,4 4 2 10 6 SW 1020,9 19 0,0
21.05.2018 11:00:00 22,0 4,5 5 3 9 5 SSE 1021,2 39 0,0
21.05.2018 10:00:00 20,4 5,6 3 2 9 5 N 1021,3 41 0,0
21.05.2018 09:00:00 18,0 6,8 3 2 6 3 NNE 1021,4 46 0,0
21.05.2018 08:00:00 14,6 6,7 3 1 5 3 SSE 1021,8 35 0,0
21.05.2018 07:00:00 11,0 6,1 0 0 3 2 N 1021,9 42 0,0
21.05.2018 06:00:00 8,4 4,2 0 0 5 3 N 1021,8 37 0,0
21.05.2018 05:00:00 5,0 2,5 3 1 8 4 NW 1021,6 50 0,0
21.05.2018 04:00:00 5,1 2,1 0 0 4 2 N 1021,4 50 0,0
21.05.2018 03:00:00 6,3 2,2 3 2 10 5 NNW 1020,9 50 0,0
21.05.2018 02:00:00 7,0 1,9 2 1 6 4 NW 1020,5 50 0,0
21.05.2018 01:00:00 10,7 2,3 2 1 5 3 SSE 1019,8 50 0,0
21.05.2018 00:00:00 14,4 0,6 4 2 21 11 SE 1019,2 50 0,0
20.05.2018 23:00:00 15,1 0,9 7 4 14 8 WNW 1018,9 50 0,0
20.05.2018 22:00:00 15,9 3,7 4 2 9 5 NW 1018,5 50 0,0
20.05.2018 21:00:00 21,4 1,1 6 3 23 12 SSW 1017,6 50 0,0
20.05.2018 20:00:00 23,0 0,7 10 5 24 13 SSW 1017,1 48 0,0
20.05.2018 19:00:00 22,8 1,7 7 4 32 17 SSW 1017,0 44 0,0
20.05.2018 18:00:00 23,6 0,6 16 9 34 18 SSW 1017,2 44 0,0
20.05.2018 17:00:00 24,8 1,0 10 5 22 12 W 1017,0 50 0,0
20.05.2018 16:00:00 24,8 1,6 6 3 26 14 W 1016,8 40 0,0
20.05.2018 15:00:00 23,3 2,7 8 5 23 13 SW 1017,3 45 0,0
20.05.2018 14:00:00 22,4 2,5 9 5 27 14 SW 1018,2 36 0,0
20.05.2018 13:00:00 22,5 3,1 9 5 26 14 W 1018,4 37 0,0
20.05.2018 12:00:00 21,0 5,4 5 3 11 6 SE 1018,9 41 0,0
20.05.2018 11:00:00 18,0 5,9 5 3 11 6 SE 1019,6 41 0,0
20.05.2018 10:00:00 16,0 5,9 3 2 9 5 ENE 1020,6 38 0,0
20.05.2018 09:00:00 13,1 6,0 3 1 9 5 W 1021,2 42 0,0
20.05.2018 08:00:00 9,6 5,4 4 2 7 4 SSE 1021,8 42 0,0
20.05.2018 07:00:00 6,3 4,3 0 0 4 2 N 1022,2 39 0,0
20.05.2018 06:00:00 4,1 3,5 0 0 2 1 N 1022,6 29 0,0
20.05.2018 05:00:00 1,9 1,6 0 0 3 2 N 1023,2 24 0,0
20.05.2018 04:00:00 1,7 1,3 0 0 5 3 N 1023,3 42 0,0
20.05.2018 03:00:00 3,2 2,3 2 1 4 2 ESE 1023,1 50 0,0
20.05.2018 02:00:00 4,3 2,3 4 2 6 3 NNW 1023,2 50 0,0
20.05.2018 01:00:00 4,3 2,6 0 0 4 2 N 1023,0 50 0,0
20.05.2018 00:00:00 4,8 2,7 3 1 4 2 NW 1022,6 50 0,0
19.05.2018 23:00:00 7,6 3,6 0 0 5 3 N 1022,0 50 0,0
19.05.2018 22:00:00 8,9 4,1 3 1 7 4 N 1021,4 50 0,0
19.05.2018 21:00:00 12,2 3,9 3 1 17 9 N 1020,4 50 0,0
19.05.2018 20:00:00 17,5 3,0 6 3 22 12 N 1019,3 50 0,0
19.05.2018 19:00:00 18,6 1,1 8 5 25 14 NW 1019,3 50 0,0
19.05.2018 18:00:00 19,1 -0,3 12 7 22 12 NW 1019,2 45 0,0
19.05.2018 17:00:00 18,7 -0,2 6 3 25 13 SW 1019,2 46 0,0
19.05.2018 16:00:00 19,1 0,6 10 5 24 13 WSW 1019,1 42 0,0
19.05.2018 15:00:00 18,7 -1,2 10 5 26 14 SW 1019,1 43 0,0
19.05.2018 14:00:00 18,8 0,4 9 5 26 14 SW 1019,3 46 0,0
19.05.2018 13:00:00 17,7 1,2 13 7 29 15 SSW 1019,6 33 0,0
19.05.2018 12:00:00 17,1 2,3 13 7 23 12 SW 1019,9 45 0,0

tt = Température de l'air
td = dewpoint
ff = Vitesse du vent
fx = gusts
dd = Direction du vent
ppp = reduced air pressure
vv = visibility
rr = Quantités de précipitations

stations d'obs. à proximité